📊 Raw Sensor Data
Showing records 44176 to 44200 of 85,031 total
| ID | Distance (ft) | Battery V | Battery A | Int Temp (°F) | Int Humid (%) | Ext Temp (°F) | Solar V | RSSI | SNR | Time Stamp |
|---|---|---|---|---|---|---|---|---|---|---|
| 40868 | 15.5 | 3.97 | 0 | 84 | 42 | 77 | 5.10 | -68 | 8 | 05/17/2025 02:00 PM |
| 40867 | 15.5 | 3.97 | 0 | 84 | 42 | 78 | 5.10 | -70 | 7 | 05/17/2025 01:45 PM |
| 40866 | 15.5 | 4.09 | 0 | 84 | 42 | 76 | 5.10 | -69 | 8 | 05/17/2025 01:30 PM |
| 40865 | 15.5 | 3.97 | 0 | 83 | 42 | 78 | 5.10 | -68 | 7 | 05/17/2025 01:15 PM |
| 40864 | 15.5 | 3.97 | 0 | 83 | 42 | 76 | 5.10 | -68 | 8 | 05/17/2025 01:00 PM |
| 40863 | 15.5 | 3.97 | 0 | 83 | 42 | 77 | 5.10 | -69 | 8 | 05/17/2025 12:45 PM |
| 40862 | 15.5 | 3.97 | 0 | 81 | 42 | 77 | 5.10 | -68 | 8 | 05/17/2025 12:30 PM |
| 40861 | 15.5 | 3.97 | 0 | 80 | 42 | 75 | 5.10 | -69 | 8 | 05/17/2025 12:15 PM |
| 40860 | 15.5 | 3.97 | 0 | 79 | 42 | 77 | 5.10 | -67 | 7 | 05/17/2025 12:00 PM |
| 40859 | 15.5 | 3.97 | 0 | 80 | 41 | 78 | 5.10 | -68 | 7 | 05/17/2025 11:45 AM |
| 40858 | 15.5 | 3.97 | 0 | 78 | 41 | 77 | 5.10 | -68 | 8 | 05/17/2025 11:30 AM |
| 40857 | 15.5 | 3.97 | 0 | 76 | 41 | 78 | 5.10 | -69 | 8 | 05/17/2025 11:15 AM |
| 40856 | 15.5 | 3.97 | 0 | 74 | 42 | 75 | 5.10 | -70 | 8 | 05/17/2025 11:00 AM |
| 40855 | 15.5 | 4.13 | 0 | 73 | 42 | 73 | 5.10 | -68 | 7 | 05/17/2025 10:45 AM |
| 40854 | 15.5 | 3.97 | 0 | 72 | 41 | 71 | 5.10 | -69 | 8 | 05/17/2025 10:30 AM |
| 40853 | 15.5 | 3.97 | 0 | 71 | 41 | 71 | 5.10 | -68 | 8 | 05/17/2025 10:15 AM |
| 40852 | 15.5 | 3.97 | 0 | 71 | 41 | 71 | 5.10 | -67 | 8 | 05/17/2025 10:00 AM |
| 40851 | 15.5 | 3.97 | 0 | 70 | 41 | 72 | 5.10 | -70 | 8 | 05/17/2025 09:45 AM |
| 40850 | 15.5 | 3.97 | 0 | 68 | 41 | 71 | 5.10 | -68 | 8 | 05/17/2025 09:30 AM |
| 40849 | 15.5 | 3.97 | 0 | 67 | 40 | 69 | 5.10 | -68 | 7 | 05/17/2025 09:15 AM |
| 40848 | 15.5 | 3.97 | 0 | 66 | 40 | 70 | 5.10 | -67 | 7 | 05/17/2025 09:00 AM |
| 40847 | 15.5 | 3.97 | 0 | 64 | 41 | 67 | 5.10 | -68 | 8 | 05/17/2025 08:45 AM |
| 40846 | 15.4 | 4.06 | 0 | 61 | 42 | 66 | 5.10 | -68 | 8 | 05/17/2025 08:30 AM |
| 40845 | 15.3 | 3.97 | 0 | 58 | 42 | 59 | 4.50 | -68 | 8 | 05/17/2025 08:15 AM |
| 40844 | 15.4 | 3.97 | 5 | 58 | 42 | 59 | 5.10 | -69 | 8 | 05/17/2025 08:00 AM |